QPF
0.00 0.00 0.01 0.00 0.00 0.00 0.00 0.00 0.00 0.01 0.00 0.01 0.02 0.02 0.01 0.01 0.01 0.01 0.01 0.01 0.01 0.01 0.01 0.00 0.01 0.02 0.03 0.05 0.07 0.07 0.11 0.13 0.10 0.06 0.05 0.05 0.05 0.07 0.10 0.07 0.06 0.06 0.05 0.04
0.00 0.01 0.01 0.00 0.00 0.00 0.00 0.00 0.00 0.01 0.00 0.01 0.01 0.01 0.01 0.01 0.01 0.01 0.01 0.01 0.01 0.01 0.01 0.01 0.01 0.02 0.03 0.05 0.07 0.08 0.10 0.10 0.07 0.05 0.05 0.06 0.06 0.06 0.09 0.11 0.08 0.07 0.05 0.04
0.00 0.00 0.00 0.00 0.00 0.00 0.00 0.00 0.00 0.01 0.00 0.00 0.01 0.02 0.01 0.01 0.01 0.01 0.01 0.01 0.01 0.01 0.01 0.01 0.02 0.02 0.04 0.05 0.07 0.09 0.09 0.08 0.06 0.05 0.05 0.07 0.08 0.07 0.06 0.09 0.06 0.05 0.05 0.04
0.00 0.00 0.00 0.00 0.00 0.00 0.00 0.00 0.00 0.00 0.01 0.01 0.01 0.01 0.01 0.01 0.01 0.01 0.01 0.01 0.01 0.01 0.01 0.02 0.02 0.03 0.04 0.05 0.04 0.04 0.05 0.05 0.06 0.08 0.07 0.06 0.07 0.06 0.04 0.06 0.05 0.03 0.04 0.05
0.00 0.00 0.00 0.00 0.00 0.00 0.00 0.00 0.00 0.00 0.01 0.01 0.01 0.01 0.01 0.02 0.02 0.01 0.01 0.01 0.01 0.01 0.01 0.01 0.02 0.03 0.04 0.04 0.05 0.05 0.07 0.06 0.06 0.07 0.07 0.07 0.08 0.07 0.06 0.06 0.05 0.05 0.05 0.05
0.00 0.00 0.00 0.00 0.00 0.00 0.00 0.00 0.01 0.01 0.01 0.01 0.02 0.03 0.04 0.05 0.04 0.03 0.02 0.02 0.01 0.02 0.02 0.02 0.04 0.07 0.05 0.05 0.07 0.08 0.08 0.07 0.07 0.07 0.08 0.09 0.10 0.10 0.09 0.07 0.05 0.04 0.03 0.04
0.00 0.00 0.00 0.00 0.00 0.00 0.00 0.00 0.01 0.01 0.01 0.01 0.02 0.04 0.07 0.06 0.04 0.03 0.03 0.02 0.01 0.02 0.03 0.02 0.04 0.06 0.07 0.05 0.06 0.07 0.07 0.07 0.07 0.07 0.08 0.08 0.08 0.08 0.07 0.05 0.04 0.03 0.03 0.04
0.00 0.00 0.00 0.00 0.00 0.00 0.00 0.00 0.01 0.01 0.01 0.01 0.02 0.05 0.07 0.05 0.03 0.03 0.03 0.02 0.02 0.02 0.02 0.02 0.03 0.05 0.06 0.05 0.06 0.06 0.06 0.06 0.07 0.08 0.09 0.08 0.07 0.07 0.07 0.06 0.04 0.03 0.03 0.05
0.00 0.00 0.00 0.00 0.00 0.00 0.00 0.00 0.00 0.01 0.01 0.02 0.03 0.05 0.06 0.04 0.02 0.03 0.02 0.03 0.02 0.03 0.02 0.02 0.02 0.03 0.04 0.04 0.04 0.04 0.04 0.05 0.06 0.07 0.08 0.08 0.06 0.06 0.05 0.05 0.04 0.03 0.03 0.03
0.00 0.00 0.00 0.00 0.00 0.00 0.00 0.00 0.00 0.01 0.02 0.03 0.03 0.04 0.03 0.03 0.03 0.04 0.03 0.04 0.03 0.03 0.03 0.02 0.02 0.03 0.03 0.03 0.03 0.02 0.03 0.07 0.12 0.11 0.09 0.08 0.06 0.05 0.04 0.03 0.03 0.02 0.02 0.02
0.00 0.00 0.01 0.01 0.01 0.00 0.00 0.00 0.00 0.01 0.02 0.03 0.03 0.04 0.03 0.03 0.04 0.04 0.03 0.02 0.03 0.05 0.06 0.03 0.02 0.03 0.03 0.02 0.02 0.02 0.02 0.05 0.06 0.06 0.07 0.08 0.07 0.05 0.03 0.03 0.03 0.03 0.02 0.01
0.01 0.01 0.02 0.01 0.01 0.00 0.00 0.00 0.01 0.01 0.02 0.02 0.03 0.04 0.03 0.03 0.03 0.03 0.02 0.02 0.02 0.03 0.04 0.02 0.01 0.01 0.02 0.02 0.02 0.02 0.03 0.03 0.03 0.04 0.05 0.06 0.05 0.04 0.03 0.03 0.03 0.03 0.03 0.03
0.02 0.02 0.02 0.02 0.01 0.01 0.00 0.00 0.00 0.01 0.01 0.01 0.02 0.04 0.03 0.02 0.02 0.02 0.05 0.03 0.02 0.02 0.02 0.02 0.01 0.01 0.01 0.02 0.02 0.02 0.02 0.02 0.03 0.03 0.03 0.03 0.03 0.03 0.03 0.02 0.02 0.03 0.03 0.03
0.02 0.01 0.01 0.01 0.01 0.01 0.00 0.00 0.00 0.01 0.01 0.01 0.02 0.02 0.01 0.01 0.01 0.02 0.02 0.02 0.01 0.02 0.03 0.02 0.01 0.01 0.01 0.01 0.01 0.02 0.02 0.02 0.02 0.01 0.01 0.02 0.02 0.02 0.03 0.02 0.02 0.02 0.03 0.03
0.01 0.01 0.00 0.00 0.00 0.00 0.00 0.00 0.00 0.00 0.00 0.01 0.01 0.01 0.01 0.01 0.01 0.01 0.01 0.01 0.01 0.02 0.03 0.02 0.01 0.01 0.01 0.01 0.01 0.01 0.02 0.02 0.02 0.01 0.01 0.01 0.01 0.02 0.02 0.02 0.02 0.01 0.02 0.03
0.01 0.01 0.01 0.00 0.00 0.00 0.00 0.00 0.00 0.01 0.01 0.01 0.01 0.01 0.02 0.01 0.01 0.01 0.01 0.01 0.01 0.02 0.02 0.01 0.01 0.01 0.01 0.00 0.00 0.01 0.01 0.01 0.02 0.02 0.01 0.01 0.01 0.02 0.02 0.02 0.02 0.02 0.02 0.02
0.01 0.01 0.01 0.01 0.00 0.00 0.01 0.01 0.01 0.01 0.01 0.01 0.01 0.02 0.01 0.01 0.01 0.01 0.01 0.01 0.01 0.01 0.02 0.01 0.01 0.01 0.01 0.01 0.00 0.01 0.01 0.01 0.02 0.02 0.01 0.01 0.01 0.02 0.02 0.02 0.02 0.02 0.02 0.02
0.01 0.01 0.01 0.01 0.01 0.02 0.02 0.01 0.01 0.01 0.01 0.01 0.01 0.01 0.01 0.01 0.01 0.01 0.01 0.01 0.02 0.02 0.02 0.02 0.02 0.02 0.01 0.01 0.01 0.01 0.01 0.01 0.03 0.01 0.01 0.00 0.00 0.01 0.02 0.02 0.02 0.02 0.02 0.03
0.00 0.01 0.01 0.02 0.02 0.02 0.01 0.01 0.01 0.01 0.02 0.01 0.01 0.01 0.00 0.00 0.01 0.01 0.01 0.02 0.02 0.02 0.03 0.02 0.02 0.02 0.02 0.02 0.01 0.01 0.01 0.01 0.02 0.01 0.01 0.01 0.00 0.01 0.01 0.01 0.01 0.02 0.03 0.03
0.00 0.01 0.02 0.02 0.01 0.02 0.01 0.01 0.01 0.01 0.02 0.01 0.01 0.01 0.00 0.00 0.01 0.01 0.01 0.01 0.01 0.01 0.02 0.02 0.02 0.03 0.03 0.02 0.01 0.01 0.01 0.02 0.01 0.01 0.01 0.01 0.01 0.01 0.01 0.01 0.01 0.01 0.02 0.03
0.01 0.01 0.02 0.02 0.01 0.02 0.01 0.00 0.00 0.01 0.02 0.01 0.00 0.00 0.01 0.01 0.01 0.01 0.01 0.02 0.01 0.01 0.02 0.02 0.03 0.04 0.03 0.03 0.02 0.02 0.01 0.02 0.02 0.01 0.01 0.01 0.01 0.01 0.01 0.01 0.01 0.01 0.02 0.03
0.01 0.01 0.01 0.01 0.02 0.02 0.01 0.00 0.01 0.02 0.01 0.00 0.00 0.00 0.01 0.01 0.01 0.01 0.02 0.01 0.01 0.01 0.01 0.01 0.03 0.03 0.02 0.02 0.02 0.01 0.02 0.03 0.02 0.02 0.02 0.02 0.02 0.02 0.01 0.02 0.01 0.01 0.02 0.04
0.01 0.01 0.01 0.01 0.02 0.01 0.01 0.01 0.01 0.01 0.00 0.00 0.00 0.00 0.01 0.02 0.02 0.02 0.02 0.01 0.01 0.01 0.02 0.02 0.04 0.04 0.02 0.01 0.01 0.01 0.01 0.02 0.02 0.02 0.02 0.02 0.02 0.02 0.01 0.01 0.01 0.01 0.03 0.04
0.01 0.00 0.00 0.01 0.01 0.00 0.00 0.00 0.00 0.00 0.00 0.00 0.00 0.01 0.01 0.01 0.01 0.01 0.01 0.01 0.02 0.03 0.02 0.02 0.03 0.04 0.02 0.01 0.00 0.01 0.01 0.02 0.01 0.01 0.01 0.01 0.01 0.01 0.01 0.01 0.01 0.02 0.04 0.04
0.01 0.01 0.01 0.01 0.00 0.00 0.00 0.00 0.00 0.00 0.00 0.00 0.00 0.00 0.01 0.01 0.01 0.01 0.02 0.02 0.02 0.03 0.02 0.02 0.01 0.01 0.01 0.00 0.00 0.01 0.01 0.01 0.01 0.01 0.01 0.01 0.00 0.00 0.01 0.01 0.02 0.04 0.06 0.04
0.01 0.01 0.01 0.01 0.00 0.00 0.00 0.00 0.00 0.00 0.00 0.00 0.00 0.00 0.01 0.01 0.00 0.01 0.01 0.01 0.02 0.02 0.02 0.02 0.01 0.01 0.01 0.01 0.01 0.01 0.01 0.01 0.01 0.01 0.01 0.01 0.01 0.01 0.01 0.02 0.02 0.02 0.02 0.01
MSLP
1008.63 1009.09 1009.38 1009.49 1009.44 1009.28 1009.06 1008.80 1008.53 1008.26 1007.99 1007.69 1007.39 1007.09 1006.83 1006.65 1006.59 1006.67 1006.89 1007.24 1007.66 1008.11 1008.52 1008.86 1009.12 1009.30 1009.46 1009.64 1009.90 1010.27 1010.77 1011.38 1012.06 1012.75 1013.39 1013.94 1014.36 1014.64 1014.79 1014.86 1014.87 1014.86 1014.85 1014.85
1008.72 1008.99 1009.09 1009.03 1008.85 1008.60 1008.34 1008.11 1007.92 1007.77 1007.63 1007.49 1007.33 1007.17 1007.01 1006.90 1006.88 1006.97 1007.19 1007.52 1007.91 1008.34 1008.74 1009.07 1009.33 1009.53 1009.71 1009.90 1010.17 1010.54 1011.03 1011.62 1012.27 1012.92 1013.52 1014.02 1014.39 1014.62 1014.74 1014.77 1014.76 1014.73 1014.72 1014.73
1008.74 1008.81 1008.72 1008.51 1008.23 1007.95 1007.71 1007.57 1007.51 1007.53 1007.58 1007.63 1007.64 1007.61 1007.54 1007.48 1007.46 1007.51 1007.67 1007.91 1008.23 1008.59 1008.94 1009.25 1009.51 1009.72 1009.91 1010.13 1010.41 1010.78 1011.25 1011.80 1012.40 1013.00 1013.54 1013.98 1014.29 1014.49 1014.57 1014.58 1014.56 1014.54 1014.53 1014.55
1008.74 1008.64 1008.40 1008.08 1007.76 1007.49 1007.33 1007.32 1007.45 1007.68 1007.94 1008.19 1008.37 1008.46 1008.45 1008.40 1008.33 1008.29 1008.33 1008.45 1008.65 1008.91 1009.19 1009.46 1009.71 1009.93 1010.15 1010.38 1010.67 1011.03 1011.48 1011.98 1012.52 1013.04 1013.51 1013.88 1014.14 1014.29 1014.35 1014.34 1014.32 1014.30 1014.30 1014.32
1008.83 1008.58 1008.24 1007.87 1007.54 1007.33 1007.30 1007.46 1007.79 1008.23 1008.71 1009.13 1009.45 1009.62 1009.65 1009.55 1009.40 1009.24 1009.14 1009.11 1009.17 1009.32 1009.52 1009.76 1009.99 1010.23 1010.46 1010.72 1011.01 1011.35 1011.76 1012.20 1012.66 1013.10 1013.48 1013.78 1013.97 1014.08 1014.10 1014.08 1014.04 1014.02 1014.02 1014.04
1009.08 1008.73 1008.32 1007.93 1007.65 1007.53 1007.63 1007.97 1008.48 1009.11 1009.76 1010.33 1010.74 1010.95 1010.96 1010.80 1010.54 1010.25 1009.99 1009.82 1009.76 1009.81 1009.96 1010.16 1010.39 1010.64 1010.89 1011.15 1011.44 1011.75 1012.09 1012.46 1012.83 1013.17 1013.47 1013.68 1013.81 1013.86 1013.85 1013.81 1013.75 1013.71 1013.70 1013.70
1009.53 1009.11 1008.68 1008.30 1008.07 1008.05 1008.27 1008.75 1009.41 1010.18 1010.94 1011.58 1012.02 1012.23 1012.19 1011.94 1011.57 1011.15 1010.77 1010.49 1010.34 1010.34 1010.45 1010.64 1010.89 1011.15 1011.41 1011.67 1011.93 1012.19 1012.46 1012.73 1013.00 1013.25 1013.45 1013.58 1013.65 1013.65 1013.60 1013.53 1013.45 1013.38 1013.33 1013.31
1010.17 1009.71 1009.27 1008.92 1008.73 1008.79 1009.11 1009.68 1010.43 1011.26 1012.06 1012.71 1013.12 1013.27 1013.15 1012.81 1012.34 1011.82 1011.36 1011.02 1010.84 1010.81 1010.93 1011.15 1011.42 1011.70 1011.96 1012.20 1012.41 1012.60 1012.79 1012.96 1013.13 1013.28 1013.39 1013.45 1013.47 1013.43 1013.34 1013.24 1013.12 1013.02 1012.94 1012.87
1010.95 1010.47 1010.03 1009.69 1009.55 1009.65 1010.01 1010.62 1011.40 1012.22 1012.99 1013.58 1013.92 1013.98 1013.76 1013.33 1012.77 1012.20 1011.71 1011.35 1011.18 1011.18 1011.34 1011.60 1011.90 1012.19 1012.45 1012.66 1012.81 1012.92 1013.00 1013.08 1013.15 1013.21 1013.25 1013.27 1013.24 1013.17 1013.07 1012.93 1012.79 1012.65 1012.52 1012.40
1011.77 1011.28 1010.84 1010.52 1010.39 1010.52 1010.90 1011.51 1012.25 1013.02 1013.71 1014.20 1014.42 1014.36 1014.04 1013.52 1012.91 1012.30 1011.80 1011.48 1011.35 1011.41 1011.62 1011.93 1012.26 1012.56 1012.79 1012.95 1013.03 1013.05 1013.04 1013.03 1013.02 1013.01 1013.01 1012.99 1012.95 1012.88 1012.76 1012.62 1012.44 1012.26 1012.08 1011.91
1012.54 1012.05 1011.61 1011.30 1011.20 1011.34 1011.72 1012.31 1013.00 1013.69 1014.27 1014.63 1014.73 1014.55 1014.12 1013.52 1012.86 1012.24 1011.75 1011.46 1011.38 1011.49 1011.76 1012.09 1012.44 1012.72 1012.92 1013.02 1013.02 1012.96 1012.87 1012.79 1012.72 1012.68 1012.66 1012.65 1012.61 1012.55 1012.44 1012.28 1012.09 1011.87 1011.64 1011.40
1013.18 1012.70 1012.28 1012.00 1011.94 1012.11 1012.51 1013.08 1013.73 1014.35 1014.82 1015.07 1015.05 1014.74 1014.21 1013.53 1012.82 1012.17 1011.68 1011.41 1011.35 1011.49 1011.77 1012.11 1012.43 1012.69 1012.83 1012.86 1012.80 1012.67 1012.52 1012.38 1012.29 1012.24 1012.23 1012.24 1012.24 1012.19 1012.10 1011.94 1011.72 1011.46 1011.18 1010.87
1013.66 1013.20 1012.83 1012.62 1012.62 1012.86 1013.31 1013.90 1014.54 1015.12 1015.52 1015.68 1015.55 1015.14 1014.51 1013.75 1012.97 1012.27 1011.75 1011.44 1011.36 1011.48 1011.72 1012.02 1012.29 1012.48 1012.56 1012.53 1012.40 1012.22 1012.04 1011.89 1011.79 1011.76 1011.78 1011.82 1011.84 1011.82 1011.74 1011.57 1011.32 1011.01 1010.66 1010.29
1014.01 1013.60 1013.31 1013.20 1013.32 1013.66 1014.20 1014.86 1015.54 1016.12 1016.49 1016.59 1016.38 1015.89 1015.17 1014.31 1013.44 1012.66 1012.05 1011.66 1011.50 1011.52 1011.68 1011.88 1012.07 1012.18 1012.19 1012.10 1011.92 1011.72 1011.52 1011.37 1011.30 1011.29 1011.34 1011.41 1011.46 1011.45 1011.35 1011.16 1010.87 1010.50 1010.07 1009.62
1014.31 1013.99 1013.82 1013.85 1014.11 1014.60 1015.27 1016.03 1016.77 1017.38 1017.76 1017.83 1017.57 1017.00 1016.20 1015.24 1014.26 1013.37 1012.63 1012.10 1011.80 1011.68 1011.69 1011.77 1011.84 1011.86 1011.79 1011.65 1011.45 1011.24 1011.05 1010.92 1010.87 1010.89 1010.96 1011.04 1011.09 1011.06 1010.93 1010.69 1010.34 1009.89 1009.39 1008.85
1014.70 1014.50 1014.47 1014.65 1015.07 1015.72 1016.52 1017.39 1018.21 1018.87 1019.26 1019.32 1019.03 1018.41 1017.52 1016.47 1015.37 1014.33 1013.43 1012.73 1012.24 1011.94 1011.79 1011.71 1011.65 1011.57 1011.45 1011.27 1011.06 1010.86 1010.69 1010.59 1010.56 1010.59 1010.66 1010.72 1010.73 1010.66 1010.47 1010.16 1009.73 1009.21 1008.63 1008.02
1015.31 1015.24 1015.36 1015.70 1016.27 1017.04 1017.95 1018.91 1019.79 1020.48 1020.87 1020.92 1020.60 1019.92 1018.96 1017.81 1016.60 1015.41 1014.35 1013.47 1012.79 1012.29 1011.96 1011.73 1011.55 1011.38 1011.20 1011.00 1010.80 1010.62 1010.48 1010.39 1010.37 1010.39 1010.42 1010.43 1010.39 1010.24 1009.97 1009.58 1009.07 1008.48 1007.83 1007.17
1016.25 1016.32 1016.57 1017.03 1017.70 1018.55 1019.51 1020.48 1021.36 1022.03 1022.41 1022.42 1022.05 1021.33 1020.31 1019.08 1017.76 1016.46 1015.25 1014.20 1013.34 1012.67 1012.17 1011.80 1011.52 1011.28 1011.06 1010.86 1010.67 1010.51 1010.39 1010.32 1010.28 1010.26 1010.24 1010.18 1010.04 1009.80 1009.45 1008.98 1008.41 1007.77 1007.09 1006.41
1017.55 1017.74 1018.08 1018.61 1019.32 1020.16 1021.08 1022.00 1022.80 1023.39 1023.68 1023.63 1023.20 1022.43 1021.37 1020.09 1018.70 1017.31 1015.99 1014.81 1013.82 1013.01 1012.38 1011.90 1011.54 1011.25 1011.02 1010.82 1010.65 1010.51 1010.40 1010.32 1010.25 1010.18 1010.08 1009.92 1009.70 1009.37 1008.94 1008.42 1007.83 1007.18 1006.52 1005.87
1019.15 1019.44 1019.84 1020.37 1021.02 1021.77 1022.56 1023.32 1023.96 1024.40 1024.57 1024.41 1023.92 1023.10 1022.01 1020.71 1019.31 1017.87 1016.50 1015.25 1014.16 1013.26 1012.55 1011.99 1011.58 1011.26 1011.02 1010.84 1010.69 1010.56 1010.45 1010.35 1010.23 1010.09 1009.92 1009.68 1009.37 1008.97 1008.51 1007.97 1007.39 1006.79 1006.20 1005.62
1020.94 1021.28 1021.69 1022.15 1022.68 1023.26 1023.84 1024.37 1024.78 1025.01 1025.01 1024.73 1024.17 1023.32 1022.22 1020.94 1019.55 1018.13 1016.75 1015.48 1014.36 1013.41 1012.64 1012.05 1011.60 1011.27 1011.04 1010.86 1010.73 1010.61 1010.49 1010.36 1010.20 1010.00 1009.75 1009.44 1009.07 1008.65 1008.18 1007.68 1007.17 1006.66 1006.18 1005.73
1022.74 1023.11 1023.46 1023.81 1024.16 1024.50 1024.81 1025.07 1025.22 1025.22 1025.03 1024.63 1023.99 1023.12 1022.05 1020.82 1019.49 1018.12 1016.78 1015.53 1014.41 1013.45 1012.67 1012.05 1011.59 1011.26 1011.03 1010.86 1010.73 1010.62 1010.49 1010.34 1010.14 1009.89 1009.58 1009.23 1008.84 1008.42 1007.99 1007.57 1007.17 1006.80 1006.47 1006.17
1024.38 1024.72 1024.99 1025.19 1025.33 1025.41 1025.44 1025.41 1025.29 1025.07 1024.71 1024.19 1023.50 1022.64 1021.62 1020.46 1019.22 1017.93 1016.67 1015.47 1014.37 1013.42 1012.63 1012.01 1011.54 1011.20 1010.97 1010.81 1010.69 1010.58 1010.44 1010.27 1010.05 1009.77 1009.44 1009.08 1008.69 1008.31 1007.96 1007.64 1007.37 1007.15 1006.99 1006.86
1025.71 1026.00 1026.15 1026.18 1026.11 1025.95 1025.71 1025.43 1025.08 1024.66 1024.16 1023.57 1022.86 1022.02 1021.07 1020.00 1018.86 1017.67 1016.48 1015.34 1014.28 1013.35 1012.56 1011.93 1011.45 1011.11 1010.87 1010.72 1010.60 1010.49 1010.35 1010.18 1009.95 1009.66 1009.34 1008.99 1008.64 1008.32 1008.05 1007.85 1007.71 1007.65 1007.64 1007.66
1026.65 1026.85 1026.89 1026.76 1026.49 1026.12 1025.68 1025.18 1024.66 1024.11 1023.52 1022.89 1022.19 1021.40 1020.53 1019.56 1018.52 1017.42 1016.31 1015.22 1014.19 1013.27 1012.47 1011.83 1011.33 1010.98 1010.74 1010.58 1010.47 1010.36 1010.24 1010.08 1009.86 1009.60 1009.30 1008.98 1008.69 1008.43 1008.25 1008.14 1008.13 1008.19 1008.30 1008.44
1027.18 1027.29 1027.21 1026.94 1026.52 1026.00 1025.41 1024.79 1024.16 1023.54 1022.92 1022.28 1021.62 1020.90 1020.11 1019.24 1018.28 1017.26 1016.20 1015.15 1014.13 1013.20 1012.39 1011.72 1011.21 1010.83 1010.58 1010.42 1010.31 1010.23 1010.13 1010.00 1009.82 1009.59 1009.33 1009.06 1008.81 1008.62 1008.50 1008.47 1008.54 1008.67 1008.86 1009.05
Thickness
5761 5756 5752 5754 5757 5756 5753 5749 5746 5748 5754 5749 5745 5742 5742 5746 5744 5742 5741 5740 5738 5737 5739 5739 5738 5736 5733 5731 5729 5727 5725 5722 5720 5718 5716 5714 5712 5710 5709 5707 5704 5701 5699 5697
5756 5752 5759 5761 5758 5754 5751 5746 5746 5746 5751 5747 5742 5740 5743 5743 5740 5739 5736 5735 5733 5733 5732 5731 5731 5730 5727 5725 5723 5721 5719 5717 5715 5713 5711 5709 5706 5705 5704 5702 5699 5697 5695 5692
5752 5757 5761 5755 5752 5747 5748 5747 5746 5743 5746 5749 5741 5735 5737 5739 5739 5736 5735 5733 5731 5728 5726 5725 5724 5723 5722 5719 5718 5716 5714 5712 5710 5708 5707 5704 5701 5700 5699 5697 5696 5694 5690 5688
5756 5760 5756 5752 5749 5748 5744 5753 5749 5745 5740 5742 5741 5731 5735 5736 5730 5729 5728 5727 5725 5724 5723 5721 5720 5718 5716 5715 5714 5711 5709 5706 5704 5702 5701 5698 5696 5695 5694 5691 5690 5688 5686 5684
5751 5755 5751 5747 5748 5749 5748 5753 5748 5746 5743 5741 5741 5733 5736 5735 5725 5724 5723 5722 5720 5719 5717 5715 5714 5713 5711 5710 5708 5706 5703 5701 5699 5698 5695 5693 5692 5691 5690 5687 5684 5682 5682 5679
5756 5760 5756 5750 5753 5751 5750 5748 5746 5745 5744 5727 5735 5728 5726 5727 5722 5721 5720 5717 5714 5713 5711 5710 5709 5707 5705 5704 5702 5699 5697 5694 5694 5692 5690 5688 5686 5684 5683 5681 5679 5678 5677 5675
5748 5753 5756 5755 5746 5747 5746 5737 5727 5726 5726 5727 5734 5723 5717 5721 5720 5717 5714 5712 5709 5707 5705 5703 5701 5699 5697 5696 5694 5693 5691 5688 5687 5686 5685 5683 5681 5680 5678 5676 5674 5672 5672 5670
5737 5738 5746 5748 5742 5737 5739 5734 5717 5708 5713 5724 5725 5716 5716 5718 5716 5714 5711 5708 5704 5701 5699 5696 5695 5693 5691 5689 5687 5686 5684 5682 5682 5681 5679 5679 5677 5676 5675 5672 5670 5668 5667 5665
5734 5734 5745 5745 5746 5741 5734 5733 5734 5722 5719 5712 5717 5715 5715 5713 5709 5707 5704 5702 5698 5695 5692 5690 5688 5686 5685 5683 5680 5679 5678 5677 5676 5675 5673 5672 5670 5669 5668 5666 5665 5664 5661 5660
5735 5726 5738 5742 5744 5740 5738 5732 5725 5715 5699 5697 5707 5709 5706 5703 5699 5699 5697 5695 5691 5689 5686 5683 5681 5680 5679 5677 5675 5673 5672 5670 5669 5669 5667 5666 5664 5663 5662 5661 5659 5658 5656 5654
5735 5723 5729 5734 5727 5724 5726 5723 5719 5716 5711 5695 5691 5697 5702 5697 5695 5692 5691 5690 5686 5683 5681 5678 5676 5674 5673 5671 5669 5666 5665 5663 5662 5662 5661 5660 5659 5659 5658 5657 5655 5653 5650 5649
5727 5724 5719 5725 5730 5730 5725 5719 5714 5700 5697 5699 5693 5690 5699 5697 5694 5690 5686 5684 5682 5679 5676 5674 5671 5669 5667 5665 5662 5659 5658 5657 5656 5656 5656 5654 5653 5653 5651 5651 5650 5648 5646 5645
5721 5714 5707 5713 5716 5720 5716 5715 5714 5710 5701 5694 5687 5687 5695 5694 5690 5687 5682 5679 5677 5673 5670 5668 5666 5663 5661 5658 5656 5654 5652 5651 5651 5651 5650 5649 5648 5647 5646 5645 5645 5644 5642 5641
5719 5712 5706 5699 5703 5710 5707 5708 5709 5704 5695 5689 5687 5686 5689 5685 5682 5679 5677 5674 5672 5668 5665 5662 5659 5657 5655 5653 5651 5649 5648 5647 5646 5645 5644 5643 5642 5642 5641 5641 5640 5639 5639 5637
5716 5709 5709 5709 5711 5708 5704 5702 5701 5696 5693 5684 5683 5681 5679 5678 5676 5674 5672 5669 5665 5662 5659 5657 5654 5652 5650 5649 5646 5645 5643 5643 5642 5641 5640 5639 5638 5637 5636 5635 5635 5635 5634 5634
5709 5702 5704 5702 5707 5703 5697 5697 5695 5691 5688 5684 5680 5675 5679 5676 5673 5669 5666 5663 5660 5658 5655 5653 5651 5648 5646 5644 5643 5641 5639 5638 5637 5636 5635 5635 5634 5632 5631 5630 5630 5630 5630 5628
5705 5697 5694 5696 5702 5697 5687 5691 5688 5685 5684 5680 5673 5672 5673 5668 5665 5663 5661 5659 5656 5654 5652 5650 5647 5645 5642 5640 5638 5636 5635 5634 5633 5631 5630 5630 5629 5628 5627 5627 5626 5625 5624 5623
5696 5693 5693 5693 5689 5674 5685 5693 5688 5681 5679 5678 5674 5671 5668 5665 5663 5663 5660 5656 5653 5651 5648 5646 5644 5641 5640 5638 5636 5634 5632 5631 5629 5628 5627 5626 5626 5624 5623 5622 5620 5619 5618 5617
5696 5690 5689 5687 5683 5682 5683 5685 5681 5674 5670 5672 5668 5665 5665 5663 5661 5660 5658 5654 5650 5648 5645 5642 5640 5639 5637 5635 5633 5630 5629 5627 5626 5625 5624 5623 5622 5620 5618 5617 5615 5614 5613 5612
5692 5689 5685 5681 5672 5667 5677 5682 5682 5673 5664 5667 5664 5660 5658 5657 5652 5653 5652 5649 5647 5644 5642 5639 5638 5636 5633 5631 5629 5627 5625 5623 5622 5621 5620 5620 5618 5616 5615 5613 5612 5611 5609 5607
5683 5681 5677 5674 5669 5673 5678 5679 5675 5658 5656 5661 5660 5656 5653 5650 5647 5648 5647 5645 5642 5640 5638 5636 5634 5631 5629 5627 5625 5623 5621 5619 5619 5618 5617 5616 5614 5612 5611 5609 5608 5607 5606 5604
5678 5676 5673 5671 5665 5664 5673 5671 5662 5657 5660 5658 5655 5653 5650 5647 5646 5645 5642 5640 5638 5636 5634 5632 5629 5627 5625 5624 5622 5620 5618 5617 5615 5614 5613 5612 5610 5610 5609 5606 5605 5604 5602 5602
5676 5675 5675 5670 5668 5669 5671 5665 5663 5660 5656 5654 5652 5650 5647 5643 5642 5641 5638 5636 5634 5632 5629 5627 5625 5623 5623 5622 5619 5617 5616 5614 5612 5611 5610 5608 5607 5606 5605 5604 5603 5603 5601 5602
5674 5672 5668 5665 5668 5668 5666 5664 5661 5658 5654 5653 5651 5647 5644 5641 5639 5638 5635 5632 5630 5628 5625 5623 5621 5621 5620 5619 5618 5616 5614 5612 5611 5609 5608 5606 5605 5604 5602 5601 5602 5601 5600 5599
5669 5665 5663 5660 5663 5663 5662 5659 5657 5655 5652 5650 5647 5645 5642 5639 5637 5634 5631 5628 5626 5624 5622 5619 5618 5618 5618 5617 5615 5614 5613 5610 5608 5607 5606 5605 5605 5604 5600 5600 5598 5598 5595 5592
5666 5662 5658 5658 5659 5656 5655 5656 5654 5650 5648 5646 5643 5640 5639 5637 5634 5631 5628 5626 5623 5621 5619 5616 5615 5615 5615 5615 5613 5612 5611 5609 5606 5606 5605 5606 5605 5603 5602 5601 5599 5593 5591 5587